Regional Weather Roundup
Issued by NWS

Home | Current Version | Previous Version | Text Only | Print | Product List | Glossary Off
Versions: 1 2 3 4 5 6 7 8 9 10 11 12 13 14 15 16 17 18 19 20 21 22 23 24 25 26 27 28 29 30 31 32 33 34 35 36 37 38 39 40 41 42 43 44 45 46 47 48 49 50

000
ASUS43 KMPX 031710
RWRMN
WEATHER ROUNDUP FOR MINNESOTA
NATIONAL WEATHER SERVICE TWIN CITIES/CHANHASSEN MN
1200 PM CDT FRI JUL 03 2015


NOTE: "FAIR" INDICATES FEW OR NO CLOUDS BELOW 12,000 FEET WITH NO
SIGNIFICANT WEATHER AND/OR OBSTRUCTIONS TO VISIBILITY. N/A MEANS
CURRENT SKY AND/OR WEATHER CONDITIONS ARE NOT AVAILABLE.

MNZ060>063-068>070-031800-
   Twin Cities Metro

CITY           SKY/WX    TMP DP  RH WIND       PRES   REMARKS
TWIN CITIES    MOSUNNY   75  56  51 W7        29.96S
ST PAUL        MOSUNNY   75  57  53 MISG      29.96S
CRYSTAL        SUNNY     77  54  44 W9        29.94F
BLAINE         SUNNY    N/A N/A N/A W8        29.95S
LAKEVILLE      SUNNY     72  55  56 W6        29.97F
EDEN PRAIRIE   SUNNY     74  58  57 SW8       29.95F
SOUTH ST PAUL  MOSUNNY   74  54  49 W9        29.96S
LAKE ELMO      FAIR      75  54  46 W7        29.97S
$$
MNZ001>005-007-008-013>017-022>024-027-028-031800-
   Northwest Minnesota

CITY           SKY/WX    TMP DP  RH WIND       PRES   REMARKS
BEMIDJI        SUNNY     76  64  65 NW8       29.93S HAZE
HALLOCK        SUNNY     75  64  69 N3        29.93S HAZE
ROSEAU         SUNNY     77  64  65 N5        29.92S HAZE
WARROAD        SUNNY     75  63  64 N9        29.93R HAZE
THIEF RVR FALL SUNNY     73  64  73 NW7       29.94S
CROOKSTON      MOSUNNY   77  66  69 N6        29.94S HAZE
FOSSTON        SUNNY     75  64  69 NW6       29.94F HAZE
DETROIT LAKES    N/A     73  63  68 NW6       29.96S HAZE
MOORHEAD         N/A     75  64  69 N3        29.94F HAZE
PARK RAPIDS    CLOUDY    76  63  64 N7        29.93S HAZE
MAHNOMEN       CLOUDY    73  65  75 NW5       29.94S HAZE
$$
MNZ006-009>011-018-025>026-031800-
   North Central Minnesota

CITY           SKY/WX    TMP DP  RH WIND       PRES   REMARKS
BAUDETTE       SUNNY     74  61  63 NW12G17   29.91R HAZE
FLAG ISLAND    SUNNY     72  57  60 N12       29.90F
INTL FALLS     MOSUNNY   77  61  57 NW13      29.88S HAZE
WASKISH        SUNNY     75  64  69 W6        29.91S HAZE
BIG FORK       SUNNY    N/A N/A N/A NW7       29.90S HAZE
LONGVILLE      CLOUDY    72  64  78 W8        29.92S HAZE
GRAND RAPIDS   MOSUNNY   73  63  68 W5        29.91S
CRANE LAKE     SUNNY     72  63  73 NW8       29.89R
ORR            SUNNY     75  61  60 NW7       29.86S
COOK           MOSUNNY   75  63  64 W10G16    29.89S HAZE
WALKER         FAIR      72  65  77 W7        29.93R HAZE
$$
MNZ012-019>021-037-031800-
   Northeast Minnesota

CITY           SKY/WX    TMP DP  RH WIND       PRES   REMARKS
DULUTH         PTSUNNY   74  62  66 VRB7      29.89S
ELY            SUNNY     73  63  68 W8        29.87S HAZE
HIBBING        MOSUNNY   76  62  62 W7        29.89S
DULUTH HARBOR  SUNNY     75  64  69 SW8       29.87F
TWO HARBORS    SUNNY     79  66  65 W7        29.85S
SILVER BAY     SUNNY     79  61  53 CALM      29.83F
GRAND MARAIS     N/A     53  48  83 SW10      29.80F
G MARAIS ARPRT MOSUNNY   73  57  56 W8        29.86S HAZE
$$
MNZ029>031-032-039>041-046>048-054>057-064-031800-
   West Central Minnesota

CITY           SKY/WX    TMP DP  RH WIND       PRES   REMARKS
FERGUS FALLS   MOSUNNY   73  64  73 CALM      29.94S HAZE
WHEATON        SUNNY     73  66  78 CALM      29.96S
MORRIS         MOSUNNY   77  66  69 W5        29.94S
ALEXANDRIA     MOSUNNY   72  65  78 W6        29.97S
ELBOW LAKE     FAIR      71  65  80 NW5       29.95S
WADENA         MOSUNNY   73  64  73 NW6       29.94S HAZE
GLENWOOD       SUNNY     73  64  73 W7        29.97S
APPLETON       SUNNY     79  63  57 CALM      29.95S
BENSON         SUNNY     75  61  60 NW3       29.96R
ORTONVILLE     SUNNY     77  64  65 W6        29.95S
MADISON          N/A     77  61  57 CALM      29.95F
WILLMAR        FAIR      75  61  60 W6        29.98S
$$
MNZ033>034-036-042>043-049>051-058-059-031800-
   Central Minnesota

CITY           SKY/WX    TMP DP  RH WIND       PRES   REMARKS
ST CLOUD       MOSUNNY   77  61  57 SW8       29.93F
SAUK CENTRE    FAIR      74  64  70 W9        29.95S
PAYNESVILLE    SUNNY     73  57  58 SW9       29.96S
AITKIN         SUNNY     75  66  73 W3        29.90S
PINE RIVER       N/A     72  64  78 NW6       29.96R HAZE
BRAINERD       CLOUDY    75  64  68 W7        29.93S HAZE
STAPLES        MOSUNNY   73  63  68 NW6       29.93F HAZE
LONG PRAIRIE   FAIR      73  63  68 SW8       29.95S
LITTLE FALLS   MOSUNNY   73  61  64 W9        29.93F
LITCHFIELD     SUNNY     75  55  50 W7        29.97S
BUFFALO        SUNNY     74  57  55 SW6       29.96F
MAPLE LAKE     SUNNY     74  62  64 SW6       29.97S
$$
MNZ037-044-045-052-053-031800-
   East Central Minnesota

CITY           SKY/WX    TMP DP  RH WIND       PRES   REMARKS
PRINCETON      SUNNY     77  63  61 SW8       29.94S
MORA           MOSUNNY   73  61  64 W5        29.94S
CAMBRIDGE      SUNNY     77  61  57 CALM      29.92S
RUSH CITY      MOSUNNY   74  59  59 SW6       29.93F
MOOSE LAKE     SUNNY     73  63  68 W3        29.89S
HINCKLEY       FAIR      73  61  64 W7        29.92F
CLOQUET        SUNNY     73  61  64 SW3       29.90S
MCGREGOR       SUNNY     73  63  68 W7        29.91F
$$
MNZ071>073-080-081-089-090-097-098-031800-
   Southwest Minnesota

CITY           SKY/WX    TMP DP  RH WIND       PRES   REMARKS
MONTEVIDEO     SUNNY     77  64  65 SW3       29.97S
GRANITE FALLS  SUNNY     73  60  63 CALM      29.98F
CANBY          MOSUNNY   76  64  66 W3        29.98S
MARSHALL       SUNNY     73  55  53 W5        29.97F
REDWOOD FALLS  SUNNY     74  58  57 VRB6      29.97F
OLIVIA         SUNNY     72  57  60 SW6       29.97S
PIPESTONE      SUNNY     72  57  60 W6        30.01S
WINDOM         SUNNY     73  57  56 CALM      30.00S
WORTHINGTON    SUNNY     70  55  60 W6        30.01F
JACKSON        SUNNY     72  55  56 W7        30.01F
TRACY          SUNNY     74  58  56 W5        29.99F
SLAYTON        SUNNY     71  55  56 CALM      30.01F
$$
MNZ065>067-074>077-082>085-091>093-031800-
   South Central Minnesota

CITY           SKY/WX    TMP DP  RH WIND       PRES   REMARKS
MANKATO        SUNNY     72  52  49 CALM      29.99S
NEW ULM        SUNNY     72  55  56 CALM      29.98F
ST JAMES       SUNNY     73  55  53 NW5       30.00S
FAIRMONT       SUNNY     72  46  40 CALM      29.99F
GLENCOE        SUNNY     75  60  59 SW6       29.97S
FARIBAULT      SUNNY     73  57  56 SW6       29.99S
OWATONNA       SUNNY     73  54  49 SW5       30.00S
WASECA         SUNNY     72  57  60 SW6       30.01S
ALBERT LEA     SUNNY     73  55  53 W5        30.00S
$$
MNZ078>079-086>088-094>096-031800-
   Southeast Minnesota

CITY           SKY/WX    TMP DP  RH WIND       PRES   REMARKS
ROCHESTER      SUNNY     73  58  59 NW7       30.00S
RED WING       MOSUNNY   75  55  50 W9        29.96S
STANTON        SUNNY     73  55  53 SW7       29.97F
DODGE CENTER   SUNNY     72  57  60 W8        30.00S
WINONA         SUNNY     73  61  64 N5        29.97S
AUSTIN         SUNNY     73  55  53 W3        30.00S
PRESTON        SUNNY     70  55  58 W3        30.00F
$$
ABBREVIATIONS USED IN REMARKS
   TC - TEMPERATURES IN CELSIUS
  WCI - WIND CHILL INDEX
   HX - HEAT INDEX
  VSB - VISIBILITY
$$



USA.gov is the U.S. government's official web portal to all federal, state and local government web resources and services.